Weather History for Bentonville, AR

Change the Weather History Date:

Tuesday, December 6, 2011

  Actual Average Record
Temperature  
Mean Temperature 26 °F -  
Max Temperature 28 °F 52 °F 74 °F (1989)
Min Temperature 24 °F 29 °F 7 °F (1972)
Degree Days  
Heating Degree Days 39    
Moisture  
Dew Point 21 °F    
Average Humidity 78    
Maximum Humidity 86    
Minimum Humidity 74    
Precipitation  
Precipitation 0.00 in - - ()
Sea Level Pressure  
Sea Level Pressure 30.23 in    
Wind  
Wind Speed 8 mph (North)    
Max Wind Speed 12 mph    
Max Gust Speed 16 mph    
Visibility 9 miles    
Events      
Averages and records for this station are not official NWS values.
T = Trace of Precipitation, MM = Missing Value Source: NWS Daily Summary

Daily Weather History Graph

Daily Weather History Graph

Search for Another Location

Airport:

Trip Planner

Search our weather history database for the weather conditions in past years. The results will help you decide how hot, cold, wet, or windy it might be!

Date:

Astronomy

Dec. 06, 2011 Rise Set
Actual Time 7:14 AM CST 5:01 PM CST
Civil Twilight 6:45 AM CST 5:30 PM CST
Nautical Twilight 6:13 AM CST 6:02 PM CST
Astronomical Twilight 5:42 AM CST 6:33 PM CST
Moon 2:26 PM CST (12/6) 3:37 AM CST (12/6)
Length of Visible Light 10h 44m
Length of Day
9h 47m
Waxing Gibbous, 87% of the Moon is Illuminated
Dec 6
Waxing Gibbous
Dec 10
Full
Dec 17
Last Quarter
Dec 24
New
Jan 1
First Quarter

Hourly Weather History & Observations

Time (CST) Temp. Windchill Dew Point Humidity Pressure Visibility Wind Dir Wind Speed Gust Speed Precip Events Conditions
12:15 AM 28.4 °F 19.7 °F 21.2 °F 74% 30.26 in 10.0 mi North 9.2 mph - N/A   Overcast
12:35 AM 26.6 °F 16.8 °F 21.2 °F 80% 30.26 in 3.0 mi North 10.4 mph - N/A   Overcast
1:15 AM 26.6 °F 18.2 °F 23.0 °F 86% 30.26 in 2.0 mi North 8.1 mph - N/A   Overcast
1:35 AM 26.6 °F 20.0 °F 23.0 °F 86% 30.26 in 2.5 mi NNW 5.8 mph - N/A   Overcast
1:55 AM 26.6 °F 19.1 °F 23.0 °F 86% 30.25 in 3.0 mi North 6.9 mph - N/A   Overcast
2:35 AM 26.6 °F 19.1 °F 23.0 °F 86% 30.25 in 4.0 mi North 6.9 mph - N/A   Overcast
2:55 AM 26.6 °F 20.0 °F 23.0 °F 86% 30.25 in 4.0 mi North 5.8 mph - N/A   Overcast
3:15 AM 26.6 °F 19.1 °F 23.0 °F 86% 30.24 in 7.0 mi North 6.9 mph - N/A   Overcast
3:35 AM 26.6 °F 16.8 °F 23.0 °F 86% 30.24 in 5.0 mi North 10.4 mph - N/A   Overcast
3:55 AM 26.6 °F 19.1 °F 21.2 °F 80% 30.25 in 9.0 mi North 6.9 mph - N/A   Overcast
4:35 AM 26.6 °F 17.5 °F 21.2 °F 80% 30.24 in 5.0 mi North 9.2 mph - N/A   Overcast
4:55 AM 26.6 °F 19.1 °F 21.2 °F 80% 30.24 in 5.0 mi North 6.9 mph - N/A   Overcast
5:15 AM 26.6 °F 18.2 °F 21.2 °F 80% 30.24 in 7.0 mi North 8.1 mph - N/A   Overcast
5:35 AM 26.6 °F 16.8 °F 21.2 °F 80% 30.24 in 8.0 mi North 10.4 mph - N/A   Overcast
5:55 AM 26.6 °F 17.5 °F 21.2 °F 80% 30.24 in 10.0 mi North 9.2 mph - N/A   Overcast
6:15 AM 26.6 °F 16.8 °F 21.2 °F 80% 30.23 in 7.0 mi North 10.4 mph - N/A   Overcast
6:35 AM 24.8 °F 15.3 °F 21.2 °F 86% 30.23 in 7.0 mi NNE 9.2 mph - N/A   Overcast
6:55 AM 26.6 °F 18.2 °F 21.2 °F 80% 30.24 in 9.0 mi North 8.1 mph - N/A   Overcast
7:15 AM 26.6 °F 18.2 °F 21.2 °F 80% 30.25 in 9.0 mi North 8.1 mph - N/A   Overcast
7:55 AM 24.8 °F 19.1 °F 21.2 °F 86% 30.26 in 8.0 mi North 4.6 mph - N/A   Overcast
8:15 AM 24.8 °F 16.1 °F 21.2 °F 86% 30.26 in 9.0 mi North 8.1 mph - N/A   Overcast
8:35 AM 24.8 °F 14.0 °F 21.2 °F 86% 30.26 in 10.0 mi North 11.5 mph 16.1 mph N/A   Overcast
8:55 AM 24.8 °F 14.6 °F 19.4 °F 80% 30.27 in 10.0 mi North 10.4 mph - N/A   Overcast
9:15 AM 26.6 °F 20.0 °F 19.4 °F 74% 30.27 in 10.0 mi North 5.8 mph - N/A   Overcast
9:35 AM 26.6 °F 17.5 °F 19.4 °F 74% 30.28 in 10.0 mi North 9.2 mph - N/A   Overcast
9:55 AM 26.6 °F 17.5 °F 19.4 °F 74% 30.28 in 10.0 mi North 9.2 mph - N/A   Overcast
10:15 AM 26.6 °F 19.1 °F 19.4 °F 74% 30.28 in 10.0 mi North 6.9 mph - N/A   Overcast
10:35 AM 26.6 °F 19.1 °F 19.4 °F 74% 30.27 in 10.0 mi North 6.9 mph - N/A   Overcast
11:15 AM 26.6 °F 19.1 °F 21.2 °F 80% 30.26 in 10.0 mi North 6.9 mph - N/A   Overcast
11:35 AM 26.6 °F 19.1 °F 21.2 °F 80% 30.24 in 10.0 mi North 6.9 mph - N/A   Overcast
11:55 AM 28.4 °F 20.4 °F 21.2 °F 74% 30.23 in 10.0 mi North 8.1 mph - N/A   Overcast
12:15 PM 28.4 °F 21.2 °F 21.2 °F 74% 30.22 in 10.0 mi North 6.9 mph - N/A   Overcast
12:35 PM 28.4 °F 19.7 °F 21.2 °F 74% 30.21 in 10.0 mi NE 9.2 mph - N/A   Overcast
12:55 PM 28.4 °F 20.4 °F 21.2 °F 74% 30.21 in 10.0 mi NNW 8.1 mph - N/A   Overcast
1:15 PM 28.4 °F 21.2 °F 21.2 °F 74% 30.20 in 10.0 mi NNE 6.9 mph - N/A   Overcast
1:35 PM 28.4 °F 19.7 °F 23.0 °F 80% 30.19 in 10.0 mi North 9.2 mph - N/A   Overcast
1:55 PM 28.4 °F 22.2 °F 21.2 °F 74% 30.18 in 10.0 mi NNW 5.8 mph - N/A   Overcast
2:15 PM 28.4 °F 21.2 °F 21.2 °F 74% 30.18 in 10.0 mi NNW 6.9 mph - N/A   Overcast
2:35 PM 28.4 °F 21.2 °F 21.2 °F 74% 30.18 in 10.0 mi NNW 6.9 mph - N/A   Overcast
3:15 PM 28.4 °F 20.4 °F 21.2 °F 74% 30.18 in 10.0 mi NW 8.1 mph - N/A   Overcast
3:35 PM 28.4 °F 20.4 °F 21.2 °F 74% 30.18 in 10.0 mi North 8.1 mph - N/A   Overcast
3:55 PM 26.6 °F 17.5 °F 21.2 °F 80% 30.18 in 10.0 mi NNW 9.2 mph - N/A   Overcast
4:15 PM 26.6 °F 20.0 °F 19.4 °F 74% 30.18 in 10.0 mi NNW 5.8 mph - N/A   Overcast
4:35 PM 26.6 °F 18.2 °F 19.4 °F 74% 30.18 in 10.0 mi NNW 8.1 mph - N/A   Overcast
4:55 PM 26.6 °F 19.1 °F 19.4 °F 74% 30.18 in 10.0 mi North 6.9 mph - N/A   Overcast
5:15 PM 26.6 °F 19.1 °F 19.4 °F 74% 30.19 in 10.0 mi NNW 6.9 mph - N/A   Overcast
5:35 PM 26.6 °F 19.1 °F 21.2 °F 80% 30.20 in 10.0 mi North 6.9 mph - N/A   Overcast
5:55 PM 26.6 °F 18.2 °F 21.2 °F 80% 30.20 in 10.0 mi NNW 8.1 mph - N/A   Overcast
6:15 PM 26.6 °F 19.1 °F 21.2 °F 80% 30.20 in 10.0 mi NNW 6.9 mph - N/A   Overcast
6:35 PM 26.6 °F 20.0 °F 19.4 °F 74% 30.21 in 10.0 mi NNW 5.8 mph - N/A   Overcast
6:55 PM 26.6 °F 22.6 °F 19.4 °F 74% 30.21 in 10.0 mi NNW 3.5 mph - N/A   Overcast
7:15 PM 26.6 °F 20.0 °F 19.4 °F 74% 30.21 in 10.0 mi North 5.8 mph - N/A   Overcast
7:35 PM 26.6 °F 21.2 °F 19.4 °F 74% 30.21 in 10.0 mi NNW 4.6 mph - N/A   Overcast
7:55 PM 26.6 °F 20.0 °F 19.4 °F 74% 30.21 in 10.0 mi NNW 5.8 mph - N/A   Overcast
8:15 PM 26.6 °F 21.2 °F 19.4 °F 74% 30.21 in 10.0 mi NNW 4.6 mph - N/A   Overcast
8:35 PM 26.6 °F 19.1 °F 19.4 °F 74% 30.21 in 10.0 mi North 6.9 mph - N/A   Overcast
8:55 PM 26.6 °F 19.1 °F 19.4 °F 74% 30.21 in 10.0 mi North 6.9 mph - N/A   Overcast
9:15 PM 26.6 °F 19.1 °F 21.2 °F 80% 30.21 in 10.0 mi North 6.9 mph - N/A   Overcast
9:35 PM 26.6 °F 16.8 °F 21.2 °F 80% 30.21 in 10.0 mi North 10.4 mph - N/A   Overcast
9:55 PM 26.6 °F 21.2 °F 19.4 °F 74% 30.20 in 10.0 mi NNW 4.6 mph - N/A   Overcast
10:15 PM 28.4 °F 19.7 °F 19.4 °F 69% 30.20 in 10.0 mi North 9.2 mph - N/A   Overcast
10:35 PM 28.4 °F 21.2 °F 19.4 °F 69% 30.20 in 10.0 mi NNW 6.9 mph - N/A   Overcast
11:15 PM 26.6 °F 17.5 °F 19.4 °F 74% 30.21 in 10.0 mi NNW 9.2 mph - N/A   Overcast
11:55 PM 28.4 °F 22.2 °F 19.4 °F 69% 30.20 in 10.0 mi NNW 5.8 mph - N/A   Overcast